Regional Weather Roundup
Issued by NWS Northern Indiana

Home | Current Version | Previous Version | Text Only | Print | Product List | Glossary Off
Versions: 1 2 3 4 5 6 7 8 9 10 11 12 13 14 15 16 17 18 19 20 21 22 23 24 25 26 27 28 29 30 31 32 33 34 35 36 37 38 39 40 41 42 43 44 45 46 47 48 49 50

000
ASUS43 KIWX 290400
RWRIWX

KIWX WEATHER ROUNDUP
NATIONAL WEATHER SERVICE NORTHERN INDIANA
1100 PM EST SUN DEC 28 2014

NOTE: "FAIR" INDICATES FEW OR NO CLOUDS BELOW 12,000 FEET WITH NO
SIGNIFICANT WEATHER AND/OR OBSTRUCTIONS TO VISIBILITY.

* THESE STATIONS ARE NOT UNDER NWS QUALITY CONTROL. THEY ALSO MAY NOT
  REPORT WEATHER SUCH AS PRECIPITATION OR FOG.

INZ001>027-290500-
NORTHERN INDIANA

CITY           SKY/WX    TMP DP  RH WIND       PRES   REMARKS
GARY*          CLEAR     23  14  68 VRB5      30.24R WCI  17
SOUTH BEND     CLEAR     22  16  78 CALM      30.23R
GOSHEN         CLEAR     25  23  92 NW3       30.21S
ANGOLA*        CLEAR     25  21  86 CALM      30.18S
FORT WAYNE     CLEAR     27  24  89 W6        30.22S WCI  20
PERU/GRISSOM   CLEAR     23  23 100 W2        30.21S

$$
INZ028>050-290500-
CENTRAL INDIANA

CITY           SKY/WX    TMP DP  RH WIND       PRES   REMARKS
LAFAYETTE      CLEAR     20  18  92 CALM      30.24S FOG
KOKOMO*        CLEAR     25  21  86 CALM      30.22S
MUNCIE*        CLEAR     26  23  88 CALM      30.21S
INDIANAPOLIS   CLEAR     23  20  88 N3        30.21F

$$
MIZ043>046-050>051-056>058-064>065-071>073-077>080-290500-
SOUTHWEST LOWER MICHIGAN

CITY           SKY/WX    TMP DP  RH WIND       PRES   REMARKS
BATTLE CREEK   CLOUDY    30  20  66 NW3       30.20R
BENTON HARBOR  MOCLDY    27  23  85 CALM      30.22S
COLDWATER*     CLEAR     26  21  82 NW3       30.19F
HILLSDALE*     CLEAR     26  22  84 NW9       30.17S WCI  17
HOLLAND        CLOUDY    33  20  58 N3        30.22S
GRAND RAPIDS   CLOUDY    30  19  63 NW7       30.21R WCI  23
KALAMAZOO      CLOUDY    30  21  69 W3        30.21R
STURGIS*       PTCLDY    25  19  80 NW5       30.20S WCI  19
THREE RIVERS*  CLOUDY    27  22  81 CALM      30.22S

$$
OHZ001>008-015>018-024>025-290500-
NORTHWEST OHIO

CITY           SKY/WX    TMP DP  RH WIND       PRES   REMARKS
DEFIANCE       CLEAR     28  24  85 W5        30.22R WCI  23
FINDLAY        CLEAR     27  23  85 W5        30.19R WCI  22
TOLEDO EXPRESS CLEAR     26  22  84 W6        30.20R WCI  19
TOLEDO METCALF CLEAR     26  21  81 W8        30.21R WCI  18
LIMA           PTCLDY    30  25  81 NW3       30.19R

$$
AND FOR LAKE MICHIGAN COASTAL AND OPEN LAKE BUOY OBSERVATIONS

STATION/POSITION TEMP    WIND        PRES    VSBY  WAVE
                 AIR SEA DIR/SP/G                  HT/PER
                 (F)     (DEG/KT/KT) (MB)    (MI)  (FT/S)
CALUMET HARBOR    28     240/  4/  5 1022.5R
MICHIGAN CITY     28     170/  6/  7   N/A
SAINT JOSEPH      33     250/  4/  8 1023.7F

$$
&&


USA.gov is the U.S. government's official web portal to all federal, state and local government web resources and services.